| time (UTC) | temp C | wind direction | speed KPH | gust KPH | rain 1hr cm | rain 24hr cm | rain mn cm | humidity % | barometer mb |
| 20260506051145 | 10 | 302 | 0.0 | 0.0 | 0.00 | 0.03 | 0.03 | 99 | 1015.1 |
| 20260506050643 | 10 | 302 | 0.0 | 0.0 | 0.00 | 0.03 | 0.03 | 98 | 1015.2 |
| 20260506050140 | 10 | 302 | 0.0 | 0.0 | 0.00 | 0.03 | 0.03 | 98 | 1015.1 |
| 20260506045133 | 10 | 302 | 0.0 | 0.0 | 0.00 | 0.03 | 0.03 | 98 | 1015.0 |
| 20260506044631 | 10 | 302 | 0.0 | 0.0 | 0.00 | 0.03 | 0.03 | 98 | 1014.9 |
| 20260506044128 | 11 | 302 | 0.0 | 0.0 | 0.00 | 0.03 | 0.03 | 98 | 1014.8 |
| 20260506043625 | 11 | 302 | 0.0 | 0.0 | 0.00 | 0.03 | 0.03 | 98 | 1014.7 |
| 20260506043123 | 11 | 302 | 0.0 | 0.0 | 0.00 | 0.03 | 0.03 | 98 | 1014.7 |
| 20260506042621 | 11 | 302 | 0.0 | 0.0 | 0.00 | 0.03 | 0.03 | 97 | 1014.6 |
| 20260506042119 | 11 | 302 | 0.0 | 0.0 | 0.00 | 0.03 | 0.03 | 96 | 1014.6 |
| 20260506041618 | 11 | 302 | 0.0 | 0.0 | 0.00 | 0.03 | 0.03 | 95 | 1014.5 |
| 20260506041114 | 11 | 302 | 0.0 | 0.0 | 0.00 | 0.03 | 0.03 | 95 | 1014.4 |
| 20260506040612 | 12 | 302 | 0.0 | 0.0 | 0.00 | 0.03 | 0.03 | 95 | 1014.4 |
| 20260506040108 | 12 | 302 | 0.0 | 0.0 | 0.00 | 0.03 | 0.03 | 94 | 1014.5 |
| 20260506035605 | 12 | 302 | 0.0 | 0.0 | 0.00 | 0.03 | 0.03 | 94 | 1014.3 |
| 20260506035102 | 12 | 302 | 0.0 | 0.0 | 0.00 | 0.03 | 0.03 | 93 | 1014.3 |
| 20260506034559 | 12 | 302 | 0.0 | 0.0 | 0.00 | 0.03 | 0.03 | 93 | 1014.1 |
| 20260506034056 | 13 | 302 | 0.0 | 0.0 | 0.00 | 0.03 | 0.03 | 92 | 1014.0 |
| 20260506033553 | 13 | 302 | 0.0 | 0.0 | 0.00 | 0.03 | 0.03 | 91 | 1013.9 |
| 20260506033050 | 13 | 303 | 0.0 | 0.0 | 0.00 | 0.03 | 0.03 | 89 | 1013.8 |
| 20260506032548 | 13 | 303 | 0.0 | 0.0 | 0.00 | 0.03 | 0.03 | 88 | 1013.9 |
| 20260506032044 | 14 | 303 | 0.0 | 0.0 | 0.00 | 0.03 | 0.03 | 87 | 1013.9 |
| 20260506031542 | 14 | 303 | 0.0 | 0.0 | 0.00 | 0.03 | 0.03 | 86 | 1013.7 |
| 20260506031038 | 15 | 303 | 0.0 | 0.0 | 0.00 | 0.03 | 0.03 | 85 | 1013.9 |
| 20260506030537 | 15 | 303 | 0.0 | 0.0 | 0.00 | 0.03 | 0.03 | 85 | 1013.9 |
| 20260506030034 | 15 | 303 | 0.0 | 0.0 | 0.00 | 0.03 | 0.03 | 84 | 1013.7 |
| 20260506025531 | 15 | 305 | 0.0 | 1.6 | 0.00 | 0.03 | 0.03 | 83 | 1013.7 |
| 20260506025027 | 15 | 305 | 0.0 | 0.0 | 0.00 | 0.03 | 0.03 | 83 | 1013.6 |
| 20260506024524 | 16 | 305 | 1.6 | 1.6 | 0.00 | 0.03 | 0.03 | 81 | 1013.5 |
| 20260506024020 | 15 | 317 | 0.0 | 0.0 | 0.00 | 0.03 | 0.03 | 81 | 1013.7 |
| 20260506023516 | 16 | 318 | 0.0 | 0.0 | 0.00 | 0.03 | 0.03 | 81 | 1013.3 |
| 20260506023014 | 16 | 318 | 0.0 | 0.0 | 0.00 | 0.03 | 0.03 | 80 | 1013.4 |
| 20260506022511 | 16 | 317 | 0.0 | 1.6 | 0.00 | 0.03 | 0.03 | 79 | 1013.3 |
| 20260506022009 | 16 | 294 | 0.0 | 0.0 | 0.00 | 0.03 | 0.03 | 78 | 1013.5 |
| 20260506021506 | 17 | 293 | 0.0 | 1.6 | 0.00 | 0.03 | 0.03 | 77 | 1013.5 |
| 20260506021003 | 17 | 4 | 0.0 | 0.0 | 0.00 | 0.03 | 0.03 | 77 | 1013.6 |
| 20260506020501 | 17 | 319 | 0.0 | 0.0 | 0.00 | 0.03 | 0.03 | 78 | 1013.4 |
| 20260506015957 | 17 | 297 | 1.6 | 1.6 | 0.00 | 0.03 | 0.03 | 77 | 1013.4 |
| 20260506015455 | 17 | 296 | 0.0 | 0.0 | 0.00 | 0.03 | 0.03 | 76 | 1013.4 |
| 20260506014952 | 17 | 278 | 1.6 | 3.2 | 0.00 | 0.03 | 0.03 | 75 | 1013.5 |
| 20260506014449 | 17 | 324 | 0.0 | 0.0 | 0.00 | 0.03 | 0.03 | 77 | 1013.4 |
| 20260506013945 | 17 | 354 | 3.2 | 3.2 | 0.00 | 0.03 | 0.03 | 77 | 1013.5 |
| 20260506013443 | 17 | 321 | 0.0 | 0.0 | 0.00 | 0.03 | 0.03 | 77 | 1013.1 |
| 20260506012939 | 17 | 313 | 1.6 | 1.6 | 0.00 | 0.03 | 0.03 | 76 | 1013.3 |
| 20260506012436 | 17 | 300 | 0.0 | 1.6 | 0.00 | 0.03 | 0.03 | 78 | 1013.1 |
| 20260506011933 | 17 | 321 | 4.8 | 4.8 | 0.00 | 0.03 | 0.03 | 75 | 1013.2 |
| 20260506011430 | 17 | 325 | 1.6 | 1.6 | 0.00 | 0.03 | 0.03 | 74 | 1013.2 |
| 20260506010927 | 17 | 9 | 0.0 | 0.0 | 0.00 | 0.03 | 0.03 | 78 | 1013.1 |
| 20260506010426 | 17 | 325 | 3.2 | 4.8 | 0.00 | 0.03 | 0.03 | 76 | 1012.9 |
| 20260506005921 | 17 | 324 | 1.6 | 1.6 | 0.00 | 0.03 | 0.03 | 75 | 1012.9 |
| 20260506005420 | 17 | 339 | 3.2 | 8.0 | 0.00 | 0.03 | 0.03 | 75 | 1013.1 |
| 20260506004914 | 17 | 342 | 3.2 | 3.2 | 0.00 | 0.03 | 0.03 | 75 | 1012.9 |
| 20260506004413 | 17 | 9 | 0.0 | 0.0 | 0.00 | 0.03 | 0.03 | 75 | 1013.1 |
| 20260506003909 | 17 | 317 | 1.6 | 1.6 | 0.00 | 0.03 | 0.03 | 75 | 1013.2 |
| 20260506003405 | 17 | 303 | 1.6 | 1.6 | 0.00 | 0.03 | 0.03 | 75 | 1013.1 |
| 20260506002902 | 17 | 324 | 0.0 | 0.0 | 0.00 | 0.03 | 0.03 | 75 | 1013.2 |
| 20260506002357 | 17 | 324 | 1.6 | 1.6 | 0.00 | 0.03 | 0.03 | 76 | 1013.2 |
| 20260506001853 | 17 | 289 | 1.6 | 3.2 | 0.00 | 0.03 | 0.03 | 74 | 1013.1 |
| 20260506001350 | 17 | 297 | 0.0 | 0.0 | 0.00 | 0.03 | 0.03 | 76 | 1013.2 |
| 20260506000847 | 17 | 343 | 1.6 | 1.6 | 0.00 | 0.03 | 0.03 | 74 | 1013.3 |
| 20260506000346 | 17 | 320 | 0.0 | 1.6 | 0.00 | 0.03 | 0.03 | 74 | 1013.4 |
| 20260505235842 | 17 | 286 | 0.0 | 0.0 | 0.00 | 0.03 | 0.03 | 76 | 1013.0 |
| 20260505235339 | 17 | 308 | 1.6 | 1.6 | 0.00 | 0.03 | 0.03 | 76 | 1013.4 |
| 20260505234836 | 17 | 334 | 3.2 | 3.2 | 0.00 | 0.03 | 0.03 | 76 | 1013.5 |
| 20260505234334 | 17 | 317 | 1.6 | 1.6 | 0.00 | 0.03 | 0.03 | 77 | 1013.4 |
| 20260505233831 | 17 | 298 | 1.6 | 3.2 | 0.00 | 0.03 | 0.03 | 77 | 1013.4 |
| 20260505233329 | 17 | 310 | 1.6 | 1.6 | 0.00 | 0.03 | 0.03 | 75 | 1013.5 |
| 20260505232826 | 17 | 320 | 1.6 | 1.6 | 0.00 | 0.03 | 0.03 | 74 | 1013.5 |
| 20260505232323 | 17 | 292 | 1.6 | 1.6 | 0.00 | 0.03 | 0.03 | 75 | 1013.4 |
| 20260505231820 | 17 | 307 | 1.6 | 1.6 | 0.00 | 0.03 | 0.03 | 75 | 1013.7 |
| 20260505231318 | 17 | 322 | 1.6 | 1.6 | 0.00 | 0.03 | 0.03 | 75 | 1013.5 |
| 20260505230816 | 17 | 343 | 3.2 | 4.8 | 0.00 | 0.03 | 0.03 | 76 | 1013.3 |
| 20260505230313 | 17 | 294 | 1.6 | 1.6 | 0.00 | 0.03 | 0.03 | 75 | 1013.4 |
| 20260505225809 | 17 | 301 | 3.2 | 3.2 | 0.00 | 0.03 | 0.03 | 75 | 1013.4 |
| 20260505225306 | 17 | 327 | 4.8 | 8.0 | 0.00 | 0.03 | 0.03 | 76 | 1013.4 |
| 20260505224801 | 17 | 312 | 0.0 | 1.6 | 0.00 | 0.03 | 0.03 | 75 | 1013.4 |
| 20260505224300 | 17 | 298 | 1.6 | 3.2 | 0.00 | 0.03 | 0.03 | 75 | 1013.6 |
| 20260505223757 | 17 | 280 | 3.2 | 3.2 | 0.00 | 0.03 | 0.03 | 74 | 1013.7 |
| 20260505223253 | 17 | 301 | 1.6 | 1.6 | 0.00 | 0.03 | 0.03 | 74 | 1013.4 |
| 20260505222749 | 17 | 331 | 4.8 | 8.0 | 0.00 | 0.03 | 0.03 | 74 | 1013.6 |
| 20260505222246 | 17 | 324 | 4.8 | 8.0 | 0.00 | 0.03 | 0.03 | 75 | 1013.8 |
| 20260505221743 | 17 | 318 | 1.6 | 1.6 | 0.00 | 0.03 | 0.03 | 75 | 1013.7 |
| 20260505221239 | 17 | 296 | 4.8 | 4.8 | 0.00 | 0.03 | 0.03 | 74 | 1013.6 |
| 20260505220736 | 17 | 300 | 3.2 | 3.2 | 0.00 | 0.03 | 0.03 | 74 | 1013.7 |
| 20260505220233 | 17 | 312 | 1.6 | 1.6 | 0.00 | 0.03 | 0.03 | 76 | 1013.5 |
| 20260505215732 | 17 | 297 | 1.6 | 1.6 | 0.00 | 0.03 | 0.03 | 76 | 1013.8 |
| 20260505215229 | 17 | 320 | 1.6 | 3.2 | 0.00 | 0.03 | 0.03 | 76 | 1013.7 |
| 20260505214727 | 17 | 326 | 3.2 | 3.2 | 0.00 | 0.03 | 0.03 | 74 | 1013.9 |
| 20260505214224 | 17 | 350 | 6.4 | 9.7 | 0.00 | 0.03 | 0.03 | 74 | 1013.8 |
| 20260505213721 | 17 | 4 | 0.0 | 1.6 | 0.00 | 0.03 | 0.03 | 75 | 1013.9 |
| 20260505213218 | 18 | 284 | 1.6 | 3.2 | 0.00 | 0.03 | 0.03 | 73 | 1013.8 |
| 20260505212714 | 17 | 293 | 1.6 | 3.2 | 0.00 | 0.03 | 0.03 | 74 | 1014.0 |
| 20260505212211 | 17 | 304 | 1.6 | 1.6 | 0.00 | 0.03 | 0.03 | 74 | 1013.9 |
| 20260505211703 | 17 | 297 | 3.2 | 3.2 | 0.00 | 0.03 | 0.03 | 72 | 1013.7 |
| 20260505211200 | 17 | 298 | 1.6 | 1.6 | 0.00 | 0.03 | 0.03 | 73 | 1013.7 |
| 20260505210656 | 18 | 328 | 1.6 | 1.6 | 0.00 | 0.03 | 0.03 | 72 | 1013.8 |
| 20260505210153 | 18 | 278 | 1.6 | 3.2 | 0.00 | 0.03 | 0.03 | 70 | 1013.7 |
| 20260505205651 | 18 | 301 | 1.6 | 1.6 | 0.00 | 0.03 | 0.03 | 71 | 1013.8 |
| 20260505205149 | 17 | 327 | 1.6 | 1.6 | 0.00 | 0.03 | 0.03 | 75 | 1014.0 |
| 20260505204645 | 17 | 322 | 1.6 | 3.2 | 0.00 | 0.03 | 0.03 | 74 | 1013.8 |
| 20260505204143 | 18 | 27 | 6.4 | 8.0 | 0.00 | 0.03 | 0.03 | 71 | 1013.7 |
| 20260505203640 | 18 | 316 | 3.2 | 3.2 | 0.00 | 0.03 | 0.03 | 72 | 1013.9 |
| 20260505203137 | 18 | 21 | 0.0 | 1.6 | 0.00 | 0.03 | 0.03 | 74 | 1013.9 |
| 20260505202632 | 17 | 269 | 0.0 | 1.6 | 0.00 | 0.03 | 0.03 | 76 | 1013.9 |
| 20260505202128 | 17 | 351 | 4.8 | 4.8 | 0.00 | 0.03 | 0.03 | 74 | 1013.9 |
| 20260505201625 | 18 | 289 | 4.8 | 4.8 | 0.00 | 0.03 | 0.03 | 72 | 1013.9 |
| 20260505201123 | 18 | 310 | 0.0 | 1.6 | 0.00 | 0.03 | 0.03 | 74 | 1014.0 |
| 20260505200621 | 18 | 316 | 0.0 | 1.6 | 0.00 | 0.03 | 0.03 | 69 | 1014.0 |
| 20260505200118 | 18 | 27 | 0.0 | 1.6 | 0.00 | 0.03 | 0.03 | 72 | 1014.0 |
| 20260505195614 | 18 | 2 | 0.0 | 0.0 | 0.00 | 0.03 | 0.03 | 76 | 1014.2 |
| 20260505195111 | 18 | 297 | 1.6 | 1.6 | 0.00 | 0.03 | 0.03 | 73 | 1014.0 |
| 20260505194608 | 18 | 330 | 0.0 | 0.0 | 0.00 | 0.03 | 0.03 | 74 | 1014.1 |
| 20260505194104 | 19 | 198 | 3.2 | 3.2 | 0.00 | 0.03 | 0.03 | 73 | 1014.3 |
| 20260505193601 | 20 | 334 | 1.6 | 1.6 | 0.00 | 0.03 | 0.03 | 70 | 1014.3 |
| 20260505193058 | 18 | 296 | 1.6 | 1.6 | 0.00 | 0.03 | 0.03 | 72 | 1014.2 |
| 20260505192557 | 18 | 161 | 1.6 | 1.6 | 0.00 | 0.03 | 0.03 | 75 | 1014.3 |
| 20260505192054 | 17 | 292 | 1.6 | 1.6 | 0.00 | 0.03 | 0.03 | 74 | 1014.5 |
| 20260505191552 | 17 | 18 | 3.2 | 3.2 | 0.00 | 0.03 | 0.03 | 76 | 1014.2 |
| 20260505191050 | 17 | 59 | 3.2 | 4.8 | 0.00 | 0.03 | 0.03 | 74 | 1014.3 |
| 20260505190544 | 17 | 3 | 6.4 | 8.0 | 0.00 | 0.03 | 0.03 | 76 | 1014.3 |
| 20260505190040 | 17 | 315 | 0.0 | 1.6 | 0.00 | 0.03 | 0.03 | 77 | 1014.4 |
| 20260505185537 | 17 | 335 | 1.6 | 3.2 | 0.00 | 0.03 | 0.03 | 77 | 1014.4 |
| 20260505185034 | 16 | 322 | 0.0 | 0.0 | 0.00 | 0.03 | 0.03 | 80 | 1014.2 |
| 20260505184531 | 16 | 315 | 1.6 | 1.6 | 0.00 | 0.03 | 0.03 | 80 | 1014.3 |
| 20260505184027 | 16 | 6 | 1.6 | 1.6 | 0.00 | 0.03 | 0.03 | 81 | 1014.4 |
| 20260505183524 | 16 | 115 | 3.2 | 3.2 | 0.00 | 0.03 | 0.03 | 77 | 1014.3 |
| 20260505183022 | 15 | 23 | 1.6 | 1.6 | 0.00 | 0.03 | 0.03 | 81 | 1014.5 |
| 20260505182518 | 15 | 297 | 1.6 | 3.2 | 0.00 | 0.03 | 0.03 | 82 | 1014.5 |
| 20260505182015 | 15 | 315 | 3.2 | 3.2 | 0.00 | 0.03 | 0.03 | 82 | 1014.4 |
| 20260505181511 | 15 | 70 | 1.6 | 1.6 | 0.00 | 0.03 | 0.03 | 84 | 1014.4 |
| 20260505181009 | 15 | 84 | 1.6 | 3.2 | 0.00 | 0.03 | 0.03 | 83 | 1014.5 |
| 20260505180504 | 15 | 357 | 0.0 | 0.0 | 0.00 | 0.03 | 0.03 | 82 | 1014.3 |
| 20260505180003 | 15 | 310 | 3.2 | 3.2 | 0.00 | 0.03 | 0.03 | 83 | 1014.6 |
| 20260505175457 | 15 | 324 | 1.6 | 1.6 | 0.00 | 0.03 | 0.03 | 83 | 1014.3 |
| 20260505174954 | 15 | 346 | 0.0 | 0.0 | 0.00 | 0.03 | 0.03 | 85 | 1014.4 |
| 20260505174451 | 15 | 324 | 1.6 | 1.6 | 0.00 | 0.03 | 0.03 | 85 | 1014.5 |
| 20260505173947 | 14 | 16 | 0.0 | 0.0 | 0.00 | 0.03 | 0.03 | 86 | 1014.3 |
| 20260505173444 | 14 | 319 | 1.6 | 1.6 | 0.00 | 0.03 | 0.03 | 86 | 1014.4 |
| 20260505172941 | 15 | 305 | 1.6 | 1.6 | 0.00 | 0.03 | 0.03 | 83 | 1014.2 |
| 20260505172439 | 15 | 340 | 0.0 | 1.6 | 0.00 | 0.03 | 0.03 | 87 | 1014.2 |
| 20260505171938 | 14 | 359 | 0.0 | 1.6 | 0.00 | 0.03 | 0.03 | 87 | 1014.2 |
| 20260505171436 | 14 | 159 | 1.6 | 3.2 | 0.00 | 0.03 | 0.03 | 89 | 1014.3 |
| 20260505170932 | 13 | 307 | 1.6 | 1.6 | 0.00 | 0.03 | 0.03 | 88 | 1014.1 |
| 20260505170429 | 13 | 307 | 1.6 | 1.6 | 0.00 | 0.03 | 0.03 | 89 | 1014.1 |
| 20260505165924 | 13 | 312 | 1.6 | 1.6 | 0.00 | 0.03 | 0.03 | 89 | 1014.4 |
| 20260505165421 | 13 | 359 | 0.0 | 0.0 | 0.00 | 0.03 | 0.03 | 91 | 1014.4 |
| 20260505164916 | 13 | 325 | 1.6 | 1.6 | 0.00 | 0.03 | 0.03 | 91 | 1014.2 |
| 20260505164413 | 13 | 334 | 1.6 | 1.6 | 0.00 | 0.03 | 0.03 | 91 | 1014.2 |
| 20260505163911 | 13 | 359 | 0.0 | 0.0 | 0.00 | 0.03 | 0.03 | 92 | 1014.4 |
| 20260505163410 | 12 | 1 | 0.0 | 0.0 | 0.00 | 0.03 | 0.03 | 92 | 1014.3 |
| 20260505162908 | 12 | 321 | 0.0 | 1.6 | 0.00 | 0.03 | 0.03 | 93 | 1014.4 |
| 20260505162403 | 12 | 324 | 1.6 | 3.2 | 0.00 | 0.03 | 0.03 | 93 | 1014.3 |
| 20260505161901 | 12 | 320 | 0.0 | 0.0 | 0.00 | 0.03 | 0.03 | 95 | 1014.2 |
| 20260505161357 | 12 | 320 | 0.0 | 0.0 | 0.00 | 0.03 | 0.03 | 94 | 1014.4 |
| 20260505160855 | 12 | 324 | 0.0 | 1.6 | 0.00 | 0.03 | 0.03 | 95 | 1014.2 |
| 20260505160353 | 12 | 333 | 0.0 | 1.6 | 0.00 | 0.03 | 0.03 | 96 | 1014.1 |
| 20260505153325 | 11 | 335 | 0.0 | 0.0 | 0.00 | 0.03 | 0.03 | 96 | 1014.0 |
| 20260505152822 | 11 | 335 | 0.0 | 0.0 | 0.00 | 0.03 | 0.03 | 96 | 1014.2 |
| 20260505152319 | 11 | 336 | 0.0 | 0.0 | 0.00 | 0.03 | 0.03 | 96 | 1014.0 |
| 20260505151814 | 11 | 336 | 0.0 | 0.0 | 0.00 | 0.03 | 0.03 | 97 | 1014.0 |
| 20260505151311 | 11 | 337 | 0.0 | 0.0 | 0.00 | 0.03 | 0.03 | 96 | 1014.1 |
| 20260505150808 | 11 | 337 | 0.0 | 0.0 | 0.00 | 0.03 | 0.03 | 96 | 1013.9 |
| 20260505150305 | 11 | 338 | 0.0 | 0.0 | 0.00 | 0.03 | 0.03 | 97 | 1013.8 |
| 20260505140229 | 10 | 331 | 0.0 | 0.0 | 0.13 | 0.03 | 0.03 | 99 | 1013.3 |
| 20260505130153 | 10 | 319 | 0.0 | 0.0 | 0.00 | 0.00 | 0.00 | 99 | 1013.3 |
| 20260505124643 | 10 | 318 | 0.0 | 0.0 | 0.00 | 0.00 | 0.00 | 99 | 1013.1 |
| 20260505124139 | 10 | 318 | 0.0 | 0.0 | 0.00 | 0.00 | 0.00 | 99 | 1013.2 |
| 20260505123635 | 10 | 318 | 0.0 | 0.0 | 0.00 | 0.00 | 0.00 | 99 | 1013.2 |
| 20260505123133 | 10 | 318 | 0.0 | 0.0 | 0.00 | 0.00 | 0.00 | 99 | 1013.1 |
| 20260505122629 | 10 | 318 | 0.0 | 0.0 | 0.00 | 0.00 | 0.00 | 99 | 1013.0 |
| 20260505122126 | 10 | 318 | 0.0 | 0.0 | 0.00 | 0.00 | 0.00 | 99 | 1013.2 |
| 20260505121622 | 10 | 318 | 0.0 | 0.0 | 0.00 | 0.00 | 0.00 | 99 | 1013.1 |
| 20260505121119 | 10 | 318 | 0.0 | 0.0 | 0.00 | 0.00 | 0.00 | 99 | 1013.0 |
| 20260505120616 | 10 | 318 | 0.0 | 0.0 | 0.00 | 0.00 | 0.00 | 99 | 1013.0 |
| 20260505120112 | 10 | 318 | 0.0 | 0.0 | 0.00 | 0.00 | 0.00 | 99 | 1012.9 |
| 20260505115606 | 10 | 318 | 0.0 | 0.0 | 0.00 | 0.00 | 0.00 | 99 | 1013.0 |
| 20260505115104 | 10 | 318 | 0.0 | 0.0 | 0.00 | 0.00 | 0.00 | 99 | 1012.9 |
| 20260505114601 | 10 | 318 | 0.0 | 0.0 | 0.00 | 0.00 | 0.00 | 99 | 1013.0 |
| 20260505114057 | 10 | 318 | 0.0 | 0.0 | 0.00 | 0.00 | 0.00 | 99 | 1013.0 |
| 20260505113553 | 10 | 318 | 0.0 | 0.0 | 0.00 | 0.00 | 0.00 | 99 | 1013.1 |
| 20260505113049 | 10 | 318 | 0.0 | 0.0 | 0.00 | 0.00 | 0.00 | 99 | 1012.9 |
| 20260505112540 | 10 | 318 | 0.0 | 0.0 | 0.00 | 0.00 | 0.00 | 99 | 1013.0 |
| 20260505112038 | 10 | 318 | 0.0 | 1.6 | 0.00 | 0.00 | 0.00 | 99 | 1012.9 |
| 20260505111532 | 10 | 318 | 0.0 | 0.0 | 0.00 | 0.00 | 0.00 | 99 | 1013.0 |
| 20260505111028 | 10 | 318 | 0.0 | 0.0 | 0.00 | 0.00 | 0.00 | 99 | 1012.8 |
| 20260505110519 | 10 | 318 | 0.0 | 0.0 | 0.00 | 0.00 | 0.00 | 99 | 1012.9 |
| 20260505101951 | 11 | 318 | 0.0 | 0.0 | 0.00 | 0.00 | 0.00 | 98 | 1012.8 |
| 20260505101449 | 11 | 318 | 0.0 | 0.0 | 0.00 | 0.00 | 0.00 | 98 | 1012.9 |
| 20260505100946 | 11 | 319 | 0.0 | 0.0 | 0.00 | 0.00 | 0.00 | 98 | 1012.7 |
| 20260505100443 | 11 | 319 | 0.0 | 1.6 | 0.00 | 0.00 | 0.00 | 98 | 1012.8 |
| 20260505095939 | 11 | 319 | 0.0 | 0.0 | 0.00 | 0.00 | 0.00 | 97 | 1012.8 |
| 20260505095436 | 11 | 319 | 1.6 | 1.6 | 0.00 | 0.00 | 0.00 | 97 | 1012.7 |
| 20260505094932 | 11 | 319 | 0.0 | 1.6 | 0.00 | 0.00 | 0.00 | 97 | 1012.7 |
| 20260505094429 | 11 | 321 | 0.0 | 0.0 | 0.00 | 0.00 | 0.00 | 96 | 1012.6 |
| 20260505093925 | 11 | 321 | 0.0 | 0.0 | 0.00 | 0.00 | 0.00 | 95 | 1012.5 |
| 20260505093422 | 11 | 353 | 0.0 | 1.6 | 0.00 | 0.00 | 0.00 | 94 | 1012.3 |
| 20260505092920 | 11 | 9 | 1.6 | 1.6 | 0.00 | 0.00 | 0.00 | 94 | 1012.3 |
| 20260505092417 | 11 | 0 | 1.6 | 1.6 | 0.00 | 0.00 | 0.00 | 93 | 1012.3 |
| 20260505091915 | 11 | 311 | 1.6 | 3.2 | 0.00 | 0.00 | 0.00 | 92 | 1012.3 |
| 20260505091412 | 11 | 316 | 0.0 | 1.6 | 0.00 | 0.00 | 0.00 | 92 | 1012.5 |
| 20260505090910 | 12 | 298 | 0.0 | 1.6 | 0.00 | 0.00 | 0.00 | 91 | 1012.3 |
| 20260505090408 | 12 | 340 | 0.0 | 0.0 | 0.00 | 0.00 | 0.00 | 91 | 1012.6 |
| 20260505085905 | 12 | 334 | 0.0 | 0.0 | 0.00 | 0.00 | 0.00 | 91 | 1012.3 |
| 20260505085403 | 12 | 306 | 1.6 | 1.6 | 0.00 | 0.00 | 0.00 | 91 | 1012.2 |
| 20260505084901 | 12 | 335 | 0.0 | 1.6 | 0.00 | 0.00 | 0.00 | 91 | 1012.4 |
| 20260505084359 | 12 | 353 | 0.0 | 0.0 | 0.00 | 0.00 | 0.00 | 91 | 1012.1 |
| 20260505083856 | 12 | 28 | 0.0 | 0.0 | 0.00 | 0.00 | 0.00 | 91 | 1012.3 |
| 20260505083354 | 12 | 304 | 1.6 | 1.6 | 0.00 | 0.00 | 0.00 | 90 | 1012.4 |
| 20260505082850 | 12 | 301 | 0.0 | 1.6 | 0.00 | 0.00 | 0.00 | 91 | 1012.4 |
| 20260505082346 | 12 | 302 | 0.0 | 1.6 | 0.00 | 0.00 | 0.00 | 90 | 1012.3 |
| 20260505081843 | 12 | 20 | 1.6 | 1.6 | 0.00 | 0.00 | 0.00 | 91 | 1012.0 |
| 20260505081339 | 12 | 303 | 1.6 | 1.6 | 0.00 | 0.00 | 0.00 | 90 | 1012.1 |
| 20260505080836 | 12 | 299 | 1.6 | 3.2 | 0.00 | 0.00 | 0.00 | 90 | 1012.1 |
| 20260505080332 | 12 | 316 | 0.0 | 0.0 | 0.00 | 0.00 | 0.00 | 90 | 1011.9 |
| 20260505075827 | 12 | 300 | 0.0 | 1.6 | 0.00 | 0.00 | 0.00 | 90 | 1012.2 |
| 20260505075325 | 12 | 296 | 3.2 | 3.2 | 0.00 | 0.00 | 0.00 | 90 | 1012.2 |
| 20260505074822 | 12 | 326 | 1.6 | 1.6 | 0.00 | 0.00 | 0.00 | 90 | 1012.1 |
| 20260505074319 | 13 | 329 | 0.0 | 1.6 | 0.00 | 0.00 | 0.00 | 89 | 1012.1 |
| 20260505073817 | 13 | 326 | 0.0 | 1.6 | 0.00 | 0.00 | 0.00 | 90 | 1012.0 |
| 20260505073314 | 13 | 326 | 0.0 | 0.0 | 0.00 | 0.00 | 0.00 | 90 | 1012.0 |
| 20260505072811 | 13 | 322 | 0.0 | 1.6 | 0.00 | 0.00 | 0.00 | 89 | 1011.9 |
| 20260505072307 | 13 | 335 | 0.0 | 0.0 | 0.00 | 0.00 | 0.00 | 89 | 1011.9 |
| 20260505071803 | 13 | 301 | 1.6 | 1.6 | 0.00 | 0.00 | 0.00 | 89 | 1011.7 |
| 20260505071300 | 13 | 303 | 0.0 | 0.0 | 0.00 | 0.00 | 0.00 | 88 | 1011.8 |
| 20260505070758 | 13 | 302 | 1.6 | 1.6 | 0.00 | 0.00 | 0.00 | 89 | 1011.7 |
| 20260505070254 | 13 | 311 | 1.6 | 1.6 | 0.00 | 0.00 | 0.00 | 89 | 1011.8 |
| 20260505065749 | 13 | 323 | 0.0 | 1.6 | 0.00 | 0.00 | 0.00 | 88 | 1012.0 |
| 20260505065246 | 13 | 314 | 0.0 | 0.0 | 0.00 | 0.00 | 0.00 | 88 | 1011.8 |
| 20260505064743 | 13 | 303 | 0.0 | 0.0 | 0.00 | 0.00 | 0.00 | 88 | 1011.7 |
| 20260505064241 | 13 | 304 | 0.0 | 0.0 | 0.00 | 0.00 | 0.00 | 88 | 1011.8 |
| 20260505063738 | 13 | 305 | 0.0 | 0.0 | 0.00 | 0.00 | 0.00 | 88 | 1011.6 |
| 20260505063234 | 13 | 306 | 0.0 | 1.6 | 0.00 | 0.00 | 0.00 | 88 | 1011.7 |
| 20260505062731 | 14 | 308 | 0.0 | 1.6 | 0.00 | 0.00 | 0.00 | 88 | 1011.6 |
| 20260505062229 | 14 | 303 | 0.0 | 0.0 | 0.00 | 0.00 | 0.00 | 88 | 1011.7 |
| 20260505061725 | 14 | 304 | 0.0 | 0.0 | 0.00 | 0.00 | 0.00 | 88 | 1011.6 |
| 20260505061224 | 14 | 304 | 0.0 | 0.0 | 0.00 | 0.00 | 0.00 | 88 | 1011.7 |
| 20260505060720 | 14 | 304 | 1.6 | 3.2 | 0.00 | 0.00 | 0.00 | 87 | 1011.4 |
| 20260505060217 | 14 | 305 | 1.6 | 1.6 | 0.00 | 0.00 | 0.00 | 87 | 1011.6 |